Overview Statistics Trail Chart Weather Telemetry Raw packets
 

This is the latest recevied weather packets stored in our database for station/object YO3FNC-10. If no packets are shown the sender has not sent any weather packets the latest 10 day(s).

<< 33 34 35 36 37 38 39 >>
Time Temp. Humidity Pressure Rain* Wind** Luminosity Snow
1787785129 28.33° C 46% 1018.7 hPa - - - -
1787784229 27.22° C 48% 1018.7 hPa - - - -
1787783329 27.22° C 49% 1018.7 hPa - - - -
1787782429 27.22° C 48% 1018.8 hPa - - - -
1787781529 27.22° C 47% 1018.8 hPa - - - -
1787780629 27.78° C 46% 1018.9 hPa - - - -
1787779728 27.78° C 45% 1018.9 hPa - - - -
1787778828 27.78° C 44% 1018.8 hPa - - - -
1787777928 27.78° C 45% 1018.9 hPa - - - -
1787777028 27.78° C 44% 1018.7 hPa - - - -
1787776128 27.78° C 44% 1018.5 hPa - - - -
1787775228 28.89° C 42% 1018.3 hPa - - - -
1787774328 30.56° C 40% 1018.2 hPa - - - -
1787773427 31.11° C 38% 1018.1 hPa - - - -
1787772527 31.11° C 39% 1018.1 hPa - - - -
1787771627 31.11° C 39% 1017.9 hPa - - - -
1787770727 31.11° C 39% 1017.8 hPa - - - -
1787769823 31.11° C 38% 1017.6 hPa - - - -
1787768923 31.11° C 38% 1017.6 hPa - - - -
1787768023 31.67° C 38% 1017.5 hPa - - - -
1787767123 31.11° C 38% 1017.2 hPa - - - -
1787766223 31.67° C 38% 1017.3 hPa - - - -
1787765322 31.11° C 38% 1017 hPa - - - -
1787764422 31.67° C 38% 1016.8 hPa - - - -
1787763522 31.11° C 38% 1016.5 hPa - - - -

* Rain since midnight (hover to see other rain measurements)
** Current wind speed in m/s (hover to see current wind gust speed)